[[{"header":{"parameterUnit":"m.s-1","parameterCategory":1,"la1":30.2991,"la2":30.254,"lo1":-89.0895,"lo2":-89.0444,"dy":0.0017,"dx":0.0017,"nx":28,"ny":28,"refTime":"2023-10-20T03:00:00:Z","depth":0,"parameterNumber":2,"parameterNumberName":"U-component_of_WINDS"},"data":[0,0,0,0,0,0,0,0,0,0,0,0,0,0,0,0,0,0,0,0,0,0,0,0,0,0,0,0,0,0,0,0,0,0,0,0,0,0,0,0,0,0,0,0,0,0,0,0,0,0,0,0,0,0,0,0,0,0,4.3847,4.3849,0,4.3996,4.3998,4.4,4.3925,4.3921,4.3917,4.3914,4.4072,4.408,4.4088,0,0,0,0,0,0,0,0,0,0,0,0,0,4.3502,4.3509,4.3847,4.3849,4.3851,4.3996,4.3998,4.4,4.3926,4.3921,4.3916,4.3912,4.407,4.4079,4.4089,0,0,0,0,0,0,0,0,0,0,0,0,0,4.3652,4.3511,4.3847,4.3831,4.3831,4.3996,4.3998,4.4001,4.3927,4.3921,4.3915,4.391,4.4067,4.4078,4.409,4.428,0,0,4.4126,4.4131,0,0,0,0,0,0,0,0,4.3643,4.3665,4.3831,4.3832,4.3833,4.3936,4.3935,4.4095,4.3928,4.3891,4.3914,4.3907,4.4032,4.4046,4.4087,4.4288,4.4294,4.4127,4.4134,4.4139,4.4143,0,0,0,0,0,0,0,4.3633,4.3658,4.3906,4.3834,4.3835,4.3818,4.3833,4.3965,4.3993,4.3894,4.3888,4.3907,4.4031,4.4076,4.4091,4.4297,4.4127,4.4137,4.4144,4.4149,4.466,4.4666,0,0,0,0,0,0,4.3623,4.365,4.3901,4.3911,4.3722,4.3829,4.3845,4.3909,4.3991,4.3998,4.3912,4.3903,4.4059,4.4077,4.4096,4.4324,4.4139,4.415,4.4157,4.4653,4.4661,4.4668,0,0,0,0,0,0,4.3616,4.3646,4.3895,4.3779,4.3809,4.3841,4.3913,4.3915,4.396,4.4005,4.401,4.3952,4.4055,4.4079,4.4234,4.4328,4.4155,4.4166,4.4646,4.4656,4.4665,4.4781,0,0,0,0,0,0,4.3606,4.3644,4.3716,4.3781,4.3816,4.403,4.3919,4.3922,4.3979,4.3969,4.4044,4.4051,4.4052,4.4217,4.4246,4.4341,4.4175,4.4638,4.465,4.4662,4.4769,4.4794,4.4815,0,0,0,0,0,4.3594,4.3744,4.372,4.375,4.3906,4.4036,4.4056,4.4053,4.3987,4.406,4.4089,4.4048,4.4313,4.4234,4.4266,4.4366,4.4632,4.4647,4.4661,4.4759,4.4789,4.4814,0,0,0,0,0,0,4.3691,4.3752,4.3726,4.3901,4.3964,4.4023,4.4115,4.4085,4.4169,4.4156,4.4151,4.4168,4.4329,4.4363,4.4273,4.4554,4.4462,4.4484,4.4526,4.4555,4.4577,4.4566,4.4185,0,0,0,0,0,4.3732,4.3831,4.388,4.403,4.4062,4.4083,4.414,4.4132,4.4197,4.4224,4.4264,4.4331,4.4429,4.4494,4.4586,4.4773,4.4789,4.4858,4.4881,4.4899,4.4919,4.502,4.5051,4.4716,4.4716,4.4716,0,0,4.382,4.3865,4.3929,4.405,4.4098,4.4202,4.4106,4.4221,4.4298,4.4242,4.439,4.4422,4.4496,4.4668,4.4745,4.4701,4.5014,4.4918,4.4932,4.4942,4.5038,4.507,4.5098,4.4726,4.4724,4.4723,0,0,4.4032,4.4076,4.4205,4.4254,4.4326,4.4339,4.437,4.4434,4.4453,4.4601,4.4561,4.4653,4.4822,4.4876,4.4926,4.5157,4.5123,4.5188,4.5307,4.5406,4.5432,4.5456,4.5538,4.5568,4.5206,4.5207,4.5207,0,4.4132,4.4285,4.4276,4.4393,4.4448,4.44,4.4531,4.458,4.468,4.472,4.4668,4.4878,4.4924,4.5108,4.5164,4.5206,4.5242,4.518,4.5429,4.5452,4.5474,4.5553,4.5584,4.5214,4.5213,4.5212,4.5212,0,4.4404,4.4511,4.4607,4.4702,4.4768,4.4892,4.4903,4.4971,4.4957,4.4976,4.5127,4.5181,4.5283,4.5326,4.5315,4.5508,4.5478,4.5428,4.5336,4.5513,4.5587,4.5617,4.5225,4.5222,4.522,4.5218,0,0,4.4683,4.477,4.4805,4.4848,4.4923,4.5007,4.5128,4.5226,4.5285,4.5355,4.5458,4.5601,4.5554,4.5611,4.5605,4.5692,4.5871,4.563,4.5632,4.5673,4.6088,4.6125,4.616,4.5848,4.5854,4.5858,4.6081,0,4.49,4.5111,4.5106,4.5303,4.5402,4.5357,4.5463,4.5522,4.5542,4.563,4.5653,4.5755,4.5685,4.5719,4.5803,4.5831,4.5954,4.5815,4.5945,4.595,4.5928,4.6199,4.6239,4.6447,4.611,4.6115,4.6119,0,4.5182,4.5259,4.5465,4.5525,4.5566,4.5662,4.5751,4.5835,4.5901,4.591,4.5972,4.5952,4.6077,4.598,4.6153,4.6058,4.6111,4.6133,4.6141,4.6154,4.6045,4.6219,4.6513,4.6544,4.6164,4.616,4.6157,0,4.5365,4.552,4.5663,4.5701,4.5775,4.5843,4.5877,4.5936,4.5995,4.6074,4.6112,4.6205,4.6256,4.6329,4.6335,4.6264,4.6509,4.6413,4.652,4.652,4.6575,4.6571,4.6882,4.6608,4.6608,4.6607,4.6606,0,4.5608,4.5736,4.5746,4.5834,4.5976,4.597,4.6111,4.6139,4.6192,4.6286,4.6254,4.6343,4.6345,4.6436,4.6442,4.6584,4.6607,4.6619,4.6619,4.6622,4.6621,4.6657,4.6643,4.6615,4.6614,4.6612,4.6611,0,4.5837,4.5848,4.6001,4.6057,4.6075,4.6177,4.6226,4.631,4.6327,4.6446,4.6474,4.6501,4.6606,4.6619,4.6743,4.6747,4.6918,4.6903,4.6895,4.6893,4.7,4.699,4.7345,4.7391,4.7087,4.709,4.7093,0,4.5991,4.6088,4.6154,4.6213,4.6251,4.6347,4.6406,4.6404,4.6467,4.6548,4.6624,4.6725,4.6807,4.6978,4.701,4.7104,4.7091,4.7209,4.7106,4.7105,4.7093,4.7088,4.7097,4.723,4.7233,4.7236,4.7238,0,4.6265,4.6265,4.6351,4.6439,4.651,4.658,4.6645,4.6696,4.6701,4.6775,4.6881,4.6944,4.7069,4.7171,4.7264,4.7301,4.7272,4.727,4.73,4.7304,4.7296,4.7302,4.695,4.7262,4.726,4.7258,4.7257,4.7256,4.6461,4.6545,4.6604,4.67,4.6748,4.681,4.6892,4.6918,4.7006,4.7106,4.7099,4.7217,4.728,4.7401,4.7445,4.7537,4.7499,4.7542,4.7553,4.7564,4.7575,4.7281,4.7555,4.7554,4.7553,4.7553,4.7552,0,4.6733,4.6768,4.6856,4.6948,4.7024,4.6986,4.7057,4.7123,4.7226,4.7287,4.7367,4.7489,4.7587,4.7626,4.7723,4.7789,4.7778,4.7815,4.781,4.7819,4.7604,4.7568,4.7822,4.7822,4.7822,4.7822,4.7822,4.7822,4.6883,4.7022,4.703,4.7193,4.7228,4.7341,4.7384,4.7441,4.7489,4.7626,4.7707,4.773,4.7783,4.7882,4.7971,4.798,4.8017,4.806,4.8063,4.7862,4.7834,4.7808,4.7775,4.8068,4.8068,4.8271,4.8273,4.8274]},{"header":{"parameterUnit":"m.s-1","parameterCategory":1,"la1":30.2991,"la2":30.254,"lo1":-89.0895,"lo2":-89.0444,"dy":0.0017,"dx":0.0017,"nx":28,"ny":28,"refTime":"2023-10-20T03:00:00:Z","depth":0,"parameterNumber":3,"parameterNumberName":"V-component_of_WINDS"},"data":[0,0,0,0,0,0,0,0,0,0,0,0,0,0,0,0,0,0,0,0,0,0,0,0,0,0,0,0,0,0,0,0,0,0,0,0,0,0,0,0,0,0,0,0,0,0,0,0,0,0,0,0,0,0,0,0,0,0,0.7424,0.7424,0,0.7421,0.7421,0.7421,0.7401,0.74,0.74,0.74,0.7397,0.7398,0.7398,0,0,0,0,0,0,0,0,0,0,0,0,0,0.7411,0.7411,0.7424,0.7424,0.7424,0.7421,0.7421,0.7421,0.7401,0.74,0.74,0.7399,0.7397,0.7398,0.7398,0,0,0,0,0,0,0,0,0,0,0,0,0,0.7413,0.7412,0.7424,0.7413,0.7412,0.7421,0.7421,0.7421,0.7401,0.74,0.74,0.7399,0.7397,0.7398,0.7398,0.7417,0,0,0.74,0.74,0,0,0,0,0,0,0,0,0.7413,0.7414,0.7415,0.7414,0.7413,0.7411,0.7416,0.7419,0.7401,0.7405,0.7399,0.7399,0.7402,0.7402,0.7404,0.7416,0.7416,0.74,0.74,0.7401,0.7401,0,0,0,0,0,0,0,0.7413,0.7414,0.7423,0.7415,0.7414,0.7409,0.7408,0.7416,0.7408,0.7405,0.7404,0.7404,0.7402,0.7403,0.7403,0.7416,0.74,0.74,0.7401,0.7401,0.7443,0.7444,0,0,0,0,0,0,0.7414,0.7414,0.7423,0.7423,0.7411,0.741,0.7409,0.7412,0.7408,0.7407,0.7404,0.7403,0.7402,0.7403,0.7403,0.7424,0.7401,0.7401,0.7401,0.7442,0.7443,0.7444,0,0,0,0,0,0,0.7414,0.7415,0.7423,0.7418,0.7418,0.7411,0.7414,0.7412,0.7414,0.7407,0.7406,0.7407,0.7402,0.7402,0.7413,0.7424,0.7401,0.7402,0.7441,0.7443,0.7444,0.7466,0,0,0,0,0,0,0.7414,0.7415,0.7423,0.7418,0.7419,0.7433,0.7415,0.7413,0.7415,0.7413,0.741,0.7408,0.7401,0.7412,0.7414,0.7424,0.7402,0.7441,0.7442,0.7443,0.7465,0.7468,0.7471,0,0,0,0,0,0.7414,0.7429,0.7423,0.7424,0.7427,0.7434,0.7434,0.7425,0.7416,0.7423,0.7418,0.7408,0.7422,0.7414,0.7415,0.7426,0.744,0.7442,0.7443,0.7463,0.7467,0.7471,0,0,0,0,0,0,0.7436,0.7429,0.7422,0.7436,0.7436,0.743,0.7439,0.743,0.7433,0.7431,0.742,0.7419,0.7432,0.743,0.742,0.7443,0.7429,0.7431,0.7444,0.7448,0.7451,0.7451,0.7403,0,0,0,0,0,0.7442,0.7448,0.7441,0.7455,0.7455,0.7447,0.745,0.7443,0.7442,0.7442,0.7438,0.7437,0.7441,0.7444,0.7448,0.7464,0.7463,0.7472,0.7475,0.7478,0.748,0.7487,0.7491,0.745,0.745,0.745,0,0,0.7456,0.7453,0.7457,0.746,0.7458,0.7464,0.7447,0.7454,0.7459,0.7443,0.7453,0.745,0.7448,0.7462,0.7467,0.746,0.7491,0.748,0.7482,0.7483,0.7489,0.7493,0.7497,0.7451,0.7451,0.745,0,0,0.7485,0.7483,0.7494,0.7492,0.749,0.7485,0.7487,0.7483,0.748,0.749,0.7478,0.7482,0.749,0.7489,0.749,0.7516,0.7507,0.7517,0.7535,0.7542,0.7545,0.7548,0.7557,0.7561,0.7519,0.7519,0.7519,0,0.7502,0.7511,0.75,0.7508,0.7509,0.7494,0.7505,0.7504,0.7504,0.7505,0.7497,0.7505,0.7503,0.7516,0.7522,0.7523,0.7525,0.7518,0.7546,0.7548,0.7551,0.7559,0.7563,0.7521,0.7521,0.752,0.752,0,0.7532,0.7538,0.7547,0.7546,0.7548,0.7558,0.7548,0.7552,0.7544,0.7539,0.7549,0.7546,0.7548,0.755,0.7543,0.7561,0.7557,0.7548,0.7534,0.7556,0.7564,0.7567,0.7523,0.7522,0.7522,0.7521,0,0,0.7576,0.7568,0.7571,0.7571,0.7567,0.7571,0.7579,0.7581,0.7584,0.7583,0.759,0.7596,0.7586,0.7587,0.758,0.7586,0.7607,0.7576,0.7576,0.7582,0.7626,0.7633,0.7637,0.76,0.7601,0.7601,0.7626,0,0.7603,0.7616,0.7607,0.7622,0.7627,0.7612,0.7619,0.7617,0.7612,0.7616,0.761,0.7615,0.7602,0.7603,0.7608,0.7603,0.7616,0.7601,0.7606,0.7606,0.7607,0.7642,0.765,0.7673,0.7629,0.763,0.763,0,0.7636,0.7637,0.7652,0.7646,0.7648,0.7655,0.7655,0.7658,0.7656,0.7652,0.7652,0.7642,0.765,0.7635,0.7645,0.7635,0.7636,0.7634,0.7635,0.7635,0.762,0.7643,0.768,0.7684,0.7635,0.7634,0.7634,0,0.7666,0.7671,0.768,0.768,0.7673,0.7678,0.7676,0.7672,0.7673,0.7674,0.7674,0.7675,0.7676,0.7677,0.7668,0.7658,0.7678,0.7663,0.7675,0.7675,0.768,0.768,0.7718,0.7681,0.7681,0.7681,0.768,0,0.7698,0.7708,0.7694,0.77,0.771,0.7699,0.7709,0.7705,0.7702,0.7707,0.7694,0.7698,0.7686,0.7689,0.7682,0.7691,0.7691,0.7688,0.7686,0.7689,0.769,0.769,0.7688,0.7681,0.7681,0.7681,0.7681,0,0.7733,0.7724,0.7734,0.7726,0.7724,0.7732,0.7726,0.7731,0.7725,0.7731,0.7732,0.7722,0.7725,0.7716,0.7718,0.7713,0.7725,0.772,0.7726,0.7725,0.7736,0.7735,0.7777,0.7781,0.7741,0.7741,0.7742,0,0.7754,0.7761,0.7754,0.7756,0.7754,0.7758,0.7759,0.7747,0.7749,0.7745,0.7751,0.7752,0.7753,0.7759,0.7752,0.7753,0.7748,0.7762,0.7748,0.7751,0.7748,0.7748,0.7748,0.7765,0.7766,0.7766,0.7767,0,0.7791,0.7786,0.7788,0.7788,0.779,0.7789,0.7788,0.779,0.7778,0.778,0.7783,0.7783,0.7784,0.7786,0.7786,0.7783,0.7773,0.7771,0.7774,0.7777,0.778,0.7778,0.7734,0.777,0.777,0.777,0.777,0.7769,0.782,0.7825,0.7821,0.7823,0.7821,0.782,0.7824,0.7818,0.782,0.782,0.7813,0.7817,0.7812,0.781,0.7808,0.7811,0.7804,0.7808,0.7809,0.781,0.7812,0.7779,0.7811,0.7811,0.7811,0.781,0.781,0,0.7857,0.7853,0.7855,0.7853,0.7855,0.7844,0.7842,0.7844,0.7848,0.7845,0.7846,0.7848,0.785,0.7842,0.7843,0.7846,0.7841,0.7847,0.7846,0.7846,0.7818,0.7816,0.785,0.785,0.785,0.785,0.785,0.785,0.7876,0.7884,0.7879,0.7885,0.7881,0.7885,0.7884,0.7883,0.7881,0.7884,0.7885,0.788,0.7875,0.7875,0.7875,0.7873,0.7874,0.788,0.7877,0.7852,0.7848,0.7844,0.7842,0.7881,0.7881,0.7904,0.7904,0.7904]}]]